| time (UTC) | temp F | wind direction | speed knots | gust knots | rain 1hr in | rain 24hr in | rain mn in | humidity % | barometer mb |
| 20260503050730 | 59 | 206 | 1.7 | 1.7 | 0.00 | 0.00 | 0.00 | 56 | 1013.9 |
| 20260503050227 | 59 | 269 | 0.0 | 0.0 | 0.00 | 0.00 | 0.00 | 55 | 1013.9 |
| 20260503045724 | 60 | 217 | 0.0 | 1.7 | 0.00 | 0.00 | 0.00 | 54 | 1013.8 |
| 20260503045222 | 60 | 200 | 0.9 | 1.7 | 0.00 | 0.00 | 0.00 | 55 | 1013.9 |
| 20260503044718 | 60 | 203 | 2.6 | 2.6 | 0.00 | 0.00 | 0.00 | 55 | 1013.9 |
| 20260503044216 | 60 | 224 | 0.0 | 1.7 | 0.00 | 0.00 | 0.00 | 58 | 1013.6 |
| 20260503043712 | 60 | 202 | 1.7 | 1.7 | 0.00 | 0.00 | 0.00 | 58 | 1014.0 |
| 20260503043210 | 61 | 200 | 1.7 | 2.6 | 0.00 | 0.00 | 0.00 | 56 | 1013.8 |
| 20260503042706 | 61 | 221 | 0.0 | 2.6 | 0.00 | 0.00 | 0.00 | 54 | 1013.7 |
| 20260503042203 | 62 | 209 | 1.7 | 1.7 | 0.00 | 0.00 | 0.00 | 53 | 1013.5 |
| 20260503041658 | 63 | 129 | 0.0 | 0.9 | 0.00 | 0.00 | 0.00 | 50 | 1013.8 |
| 20260503041156 | 63 | 16 | 0.0 | 1.7 | 0.00 | 0.00 | 0.00 | 51 | 1013.5 |
| 20260503040654 | 63 | 8 | 0.0 | 0.9 | 0.00 | 0.00 | 0.00 | 51 | 1013.5 |
| 20260503040151 | 64 | 283 | 0.0 | 1.7 | 0.00 | 0.00 | 0.00 | 47 | 1013.2 |
| 20260503035647 | 65 | 204 | 2.6 | 2.6 | 0.00 | 0.00 | 0.00 | 46 | 1013.2 |
| 20260503035145 | 64 | 207 | 2.6 | 2.6 | 0.00 | 0.00 | 0.00 | 47 | 1013.2 |
| 20260503034643 | 65 | 204 | 2.6 | 2.6 | 0.00 | 0.00 | 0.00 | 45 | 1013.2 |
| 20260503034139 | 65 | 211 | 2.6 | 2.6 | 0.00 | 0.00 | 0.00 | 48 | 1013.1 |
| 20260503033636 | 65 | 201 | 0.0 | 1.7 | 0.00 | 0.00 | 0.00 | 47 | 1013.1 |
| 20260503033134 | 64 | 280 | 0.0 | 1.7 | 0.00 | 0.00 | 0.00 | 46 | 1013.0 |
| 20260503032632 | 65 | 50 | 0.0 | 0.9 | 0.00 | 0.00 | 0.00 | 45 | 1013.0 |
| 20260503032131 | 65 | 293 | 0.0 | 0.9 | 0.00 | 0.00 | 0.00 | 45 | 1012.8 |
| 20260503031628 | 66 | 304 | 0.0 | 0.0 | 0.00 | 0.00 | 0.00 | 44 | 1012.9 |
| 20260503031125 | 67 | 281 | 0.0 | 0.9 | 0.00 | 0.00 | 0.00 | 43 | 1012.9 |
| 20260503030621 | 67 | 220 | 0.0 | 1.7 | 0.00 | 0.00 | 0.00 | 42 | 1012.7 |
| 20260503030118 | 67 | 251 | 0.0 | 0.9 | 0.00 | 0.00 | 0.00 | 41 | 1012.7 |
| 20260503025615 | 67 | 217 | 0.0 | 0.9 | 0.00 | 0.00 | 0.00 | 42 | 1012.7 |
| 20260503025113 | 68 | 282 | 0.0 | 0.0 | 0.00 | 0.00 | 0.00 | 41 | 1012.9 |
| 20260503024609 | 69 | 50 | 0.0 | 0.0 | 0.00 | 0.00 | 0.00 | 39 | 1012.5 |
| 20260503024106 | 71 | 60 | 0.0 | 0.0 | 0.00 | 0.00 | 0.00 | 38 | 1012.7 |
| 20260503023603 | 71 | 323 | 1.7 | 2.6 | 0.00 | 0.00 | 0.00 | 37 | 1012.7 |
| 20260503023100 | 72 | 321 | 0.9 | 2.6 | 0.00 | 0.00 | 0.00 | 36 | 1012.3 |
| 20260503022556 | 72 | 330 | 1.7 | 2.6 | 0.00 | 0.00 | 0.00 | 36 | 1012.7 |
| 20260503022050 | 73 | 305 | 1.7 | 1.7 | 0.00 | 0.00 | 0.00 | 34 | 1012.7 |
| 20260503021548 | 74 | 325 | 2.6 | 2.6 | 0.00 | 0.00 | 0.00 | 33 | 1012.4 |
| 20260503021045 | 75 | 318 | 3.5 | 3.5 | 0.00 | 0.00 | 0.00 | 32 | 1012.7 |
| 20260503020542 | 75 | 0 | 0.9 | 2.6 | 0.00 | 0.00 | 0.00 | 31 | 1012.5 |
| 20260503020039 | 75 | 355 | 0.9 | 3.5 | 0.00 | 0.00 | 0.00 | 31 | 1012.5 |
| 20260503015535 | 76 | 312 | 2.6 | 3.5 | 0.00 | 0.00 | 0.00 | 30 | 1012.7 |
| 20260503015033 | 76 | 320 | 2.6 | 4.3 | 0.00 | 0.00 | 0.00 | 31 | 1012.8 |
| 20260503014528 | 77 | 326 | 2.6 | 4.3 | 0.00 | 0.00 | 0.00 | 30 | 1012.7 |
| 20260503014027 | 77 | 310 | 4.3 | 4.3 | 0.00 | 0.00 | 0.00 | 30 | 1013.0 |
| 20260503013524 | 78 | 316 | 3.5 | 6.1 | 0.00 | 0.00 | 0.00 | 28 | 1012.7 |
| 20260503013021 | 80 | 19 | 0.9 | 2.6 | 0.00 | 0.00 | 0.00 | 26 | 1012.9 |
| 20260503012519 | 79 | 336 | 3.5 | 4.3 | 0.00 | 0.00 | 0.00 | 26 | 1012.8 |
| 20260503012015 | 80 | 10 | 0.9 | 3.5 | 0.00 | 0.00 | 0.00 | 29 | 1013.0 |
| 20260503011511 | 81 | 335 | 2.6 | 2.6 | 0.00 | 0.00 | 0.00 | 24 | 1012.9 |
| 20260503011009 | 80 | 353 | 1.7 | 2.6 | 0.00 | 0.00 | 0.00 | 27 | 1012.9 |
| 20260503010505 | 80 | 359 | 1.7 | 2.6 | 0.00 | 0.00 | 0.00 | 25 | 1013.0 |
| 20260503010003 | 79 | 358 | 1.7 | 2.6 | 0.00 | 0.00 | 0.00 | 25 | 1012.9 |
| 20260503005459 | 79 | 337 | 1.7 | 2.6 | 0.00 | 0.00 | 0.00 | 22 | 1013.1 |
| 20260503004956 | 79 | 46 | 1.7 | 2.6 | 0.00 | 0.00 | 0.00 | 20 | 1013.2 |
| 20260503004453 | 79 | 338 | 0.9 | 1.7 | 0.00 | 0.00 | 0.00 | 20 | 1013.1 |
| 20260503003951 | 78 | 62 | 0.0 | 1.7 | 0.00 | 0.00 | 0.00 | 21 | 1013.3 |
| 20260503003447 | 78 | 350 | 0.9 | 2.6 | 0.00 | 0.00 | 0.00 | 21 | 1013.0 |
| 20260503002944 | 79 | 23 | 2.6 | 2.6 | 0.00 | 0.00 | 0.00 | 23 | 1013.3 |
| 20260503002442 | 79 | 48 | 4.3 | 4.3 | 0.00 | 0.00 | 0.00 | 22 | 1013.2 |
| 20260503001938 | 80 | 33 | 2.6 | 3.5 | 0.00 | 0.00 | 0.00 | 21 | 1013.2 |
| 20260503001435 | 79 | 37 | 2.6 | 5.2 | 0.00 | 0.00 | 0.00 | 23 | 1013.3 |
| 20260503000932 | 78 | 48 | 3.5 | 5.2 | 0.00 | 0.00 | 0.00 | 23 | 1013.0 |
| 20260503000430 | 79 | 33 | 0.0 | 3.5 | 0.00 | 0.00 | 0.00 | 23 | 1013.1 |
| 20260502235926 | 79 | 15 | 1.7 | 4.3 | 0.00 | 0.00 | 0.00 | 25 | 1013.3 |
| 20260502235423 | 80 | 25 | 0.9 | 2.6 | 0.00 | 0.00 | 0.00 | 25 | 1013.2 |
| 20260502234920 | 81 | 12 | 1.7 | 3.5 | 0.00 | 0.00 | 0.00 | 27 | 1013.2 |
| 20260502234417 | 80 | 27 | 1.7 | 4.3 | 0.00 | 0.00 | 0.00 | 25 | 1013.2 |
| 20260502233914 | 80 | 10 | 1.7 | 2.6 | 0.00 | 0.00 | 0.00 | 26 | 1013.3 |
| 20260502233409 | 79 | 35 | 3.5 | 4.3 | 0.00 | 0.00 | 0.00 | 28 | 1013.2 |
| 20260502232907 | 79 | 0 | 1.7 | 5.2 | 0.00 | 0.00 | 0.00 | 28 | 1013.4 |
| 20260502232403 | 79 | 3 | 2.6 | 3.5 | 0.00 | 0.00 | 0.00 | 28 | 1013.4 |
| 20260502231900 | 78 | 343 | 2.6 | 2.6 | 0.00 | 0.00 | 0.00 | 30 | 1013.5 |
| 20260502231357 | 77 | 17 | 1.7 | 5.2 | 0.00 | 0.00 | 0.00 | 31 | 1013.5 |
| 20260502230855 | 78 | 20 | 1.7 | 4.3 | 0.00 | 0.00 | 0.00 | 28 | 1013.6 |
| 20260502230353 | 79 | 291 | 2.6 | 2.6 | 0.00 | 0.00 | 0.00 | 25 | 1013.6 |
| 20260502225850 | 79 | 259 | 1.7 | 1.7 | 0.00 | 0.00 | 0.00 | 26 | 1013.9 |
| 20260502225346 | 78 | 55 | 3.5 | 5.2 | 0.00 | 0.00 | 0.00 | 28 | 1013.9 |
| 20260502224844 | 78 | 73 | 5.2 | 7.8 | 0.00 | 0.00 | 0.00 | 27 | 1014.0 |
| 20260502224339 | 80 | 263 | 0.9 | 2.6 | 0.00 | 0.00 | 0.00 | 28 | 1014.0 |
| 20260502223837 | 79 | 4 | 2.6 | 5.2 | 0.00 | 0.00 | 0.00 | 30 | 1014.3 |
| 20260502223335 | 78 | 57 | 2.6 | 5.2 | 0.00 | 0.00 | 0.00 | 28 | 1014.2 |
| 20260502222832 | 78 | 258 | 0.9 | 3.5 | 0.00 | 0.00 | 0.00 | 28 | 1014.4 |
| 20260502222330 | 78 | 76 | 2.6 | 4.3 | 0.00 | 0.00 | 0.00 | 27 | 1014.4 |
| 20260502221825 | 79 | 40 | 0.9 | 4.3 | 0.00 | 0.00 | 0.00 | 30 | 1014.4 |
| 20260502221322 | 79 | 60 | 2.6 | 3.5 | 0.00 | 0.00 | 0.00 | 30 | 1014.4 |
| 20260502220820 | 77 | 71 | 1.7 | 3.5 | 0.00 | 0.00 | 0.00 | 27 | 1014.4 |
| 20260502220315 | 77 | 73 | 1.7 | 3.5 | 0.00 | 0.00 | 0.00 | 28 | 1014.7 |
| 20260502215812 | 78 | 51 | 2.6 | 2.6 | 0.00 | 0.00 | 0.00 | 28 | 1014.7 |
| 20260502215309 | 77 | 114 | 2.6 | 6.1 | 0.00 | 0.00 | 0.00 | 30 | 1014.7 |
| 20260502214806 | 77 | 91 | 3.5 | 7.8 | 0.00 | 0.00 | 0.00 | 28 | 1015.0 |
| 20260502214303 | 78 | 60 | 2.6 | 6.1 | 0.00 | 0.00 | 0.00 | 29 | 1014.7 |
| 20260502213800 | 77 | 83 | 1.7 | 2.6 | 0.00 | 0.00 | 0.00 | 28 | 1014.9 |
| 20260502213257 | 76 | 107 | 0.0 | 3.5 | 0.00 | 0.00 | 0.00 | 27 | 1014.9 |
| 20260502212756 | 75 | 13 | 0.9 | 7.8 | 0.00 | 0.00 | 0.00 | 29 | 1015.2 |
| 20260502212254 | 77 | 4 | 0.9 | 4.3 | 0.00 | 0.00 | 0.00 | 30 | 1015.1 |
| 20260502211749 | 76 | 39 | 1.7 | 5.2 | 0.00 | 0.00 | 0.00 | 31 | 1015.2 |
| 20260502211246 | 75 | 80 | 3.5 | 7.8 | 0.00 | 0.00 | 0.00 | 30 | 1015.5 |
| 20260502210744 | 76 | 47 | 4.3 | 6.1 | 0.00 | 0.00 | 0.00 | 30 | 1015.4 |
| 20260502210241 | 76 | 111 | 2.6 | 3.5 | 0.00 | 0.00 | 0.00 | 32 | 1015.6 |
| 20260502205738 | 75 | 106 | 2.6 | 4.3 | 0.00 | 0.00 | 0.00 | 31 | 1015.8 |
| 20260502205234 | 75 | 73 | 0.9 | 4.3 | 0.00 | 0.00 | 0.00 | 31 | 1015.5 |
| 20260502204731 | 76 | 77 | 4.3 | 5.2 | 0.00 | 0.00 | 0.00 | 31 | 1015.9 |
| 20260502204229 | 75 | 249 | 0.9 | 4.3 | 0.00 | 0.00 | 0.00 | 31 | 1015.8 |
| 20260502203726 | 74 | 231 | 2.6 | 4.3 | 0.00 | 0.00 | 0.00 | 32 | 1016.1 |
| 20260502203225 | 75 | 150 | 1.7 | 1.7 | 0.00 | 0.00 | 0.00 | 32 | 1015.9 |
| 20260502202724 | 74 | 54 | 0.9 | 5.2 | 0.00 | 0.00 | 0.00 | 32 | 1016.1 |
| 20260502202222 | 74 | 75 | 3.5 | 4.3 | 0.00 | 0.00 | 0.00 | 33 | 1016.3 |
| 20260502201719 | 75 | 258 | 1.7 | 2.6 | 0.00 | 0.00 | 0.00 | 33 | 1016.3 |
| 20260502201216 | 73 | 352 | 1.7 | 5.2 | 0.00 | 0.00 | 0.00 | 34 | 1016.3 |
| 20260502200712 | 74 | 21 | 1.7 | 2.6 | 0.00 | 0.00 | 0.00 | 34 | 1016.5 |
| 20260502200208 | 73 | 145 | 1.7 | 2.6 | 0.00 | 0.00 | 0.00 | 36 | 1016.3 |
| 20260502195707 | 72 | 298 | 1.7 | 4.3 | 0.00 | 0.00 | 0.00 | 35 | 1016.4 |
| 20260502195203 | 72 | 285 | 2.6 | 4.3 | 0.00 | 0.00 | 0.00 | 37 | 1016.6 |
| 20260502194700 | 73 | 55 | 3.5 | 4.3 | 0.00 | 0.00 | 0.00 | 36 | 1016.5 |
| 20260502194156 | 72 | 330 | 1.7 | 4.3 | 0.00 | 0.00 | 0.00 | 39 | 1016.7 |
| 20260502193653 | 72 | 69 | 1.7 | 3.5 | 0.00 | 0.00 | 0.00 | 38 | 1016.6 |
| 20260502193150 | 72 | 49 | 0.9 | 3.5 | 0.00 | 0.00 | 0.00 | 41 | 1016.6 |
| 20260502192645 | 71 | 329 | 2.6 | 3.5 | 0.00 | 0.00 | 0.00 | 40 | 1016.6 |
| 20260502192143 | 71 | 258 | 2.6 | 4.3 | 0.00 | 0.00 | 0.00 | 39 | 1016.8 |
| 20260502191640 | 71 | 123 | 2.6 | 3.5 | 0.00 | 0.00 | 0.00 | 37 | 1016.9 |
| 20260502191137 | 70 | 69 | 4.3 | 5.2 | 0.00 | 0.00 | 0.00 | 38 | 1016.6 |
| 20260502190635 | 70 | 339 | 0.0 | 5.2 | 0.00 | 0.00 | 0.00 | 40 | 1016.7 |
| 20260502190132 | 70 | 58 | 2.6 | 4.3 | 0.00 | 0.00 | 0.00 | 41 | 1016.9 |
| 20260502185626 | 70 | 61 | 2.6 | 2.6 | 0.00 | 0.00 | 0.00 | 42 | 1017.1 |
| 20260502185124 | 69 | 66 | 1.7 | 4.3 | 0.00 | 0.00 | 0.00 | 39 | 1017.1 |
| 20260502184620 | 69 | 358 | 1.7 | 4.3 | 0.00 | 0.00 | 0.00 | 40 | 1017.3 |
| 20260502184115 | 68 | 54 | 2.6 | 4.3 | 0.00 | 0.00 | 0.00 | 43 | 1017.3 |
| 20260502183612 | 68 | 292 | 1.7 | 3.5 | 0.00 | 0.00 | 0.00 | 41 | 1017.3 |
| 20260502183108 | 68 | 292 | 1.7 | 3.5 | 0.00 | 0.00 | 0.00 | 42 | 1017.6 |
| 20260502182603 | 67 | 149 | 0.0 | 4.3 | 0.00 | 0.00 | 0.00 | 42 | 1017.6 |
| 20260502182059 | 68 | 261 | 2.6 | 4.3 | 0.00 | 0.00 | 0.00 | 42 | 1017.5 |
| 20260502181557 | 67 | 70 | 0.9 | 1.7 | 0.00 | 0.00 | 0.00 | 42 | 1017.6 |
| 20260502181056 | 66 | 259 | 2.6 | 4.3 | 0.00 | 0.00 | 0.00 | 43 | 1017.8 |
| 20260502180552 | 67 | 178 | 0.0 | 2.6 | 0.00 | 0.00 | 0.00 | 43 | 1017.6 |
| 20260502170512 | 65 | 41 | 3.5 | 4.3 | 0.00 | 0.00 | 0.00 | 48 | 1018.0 |
| 20260502163955 | 63 | 124 | 1.7 | 3.5 | 0.00 | 0.00 | 0.00 | 52 | 1018.1 |
| 20260502163451 | 62 | 268 | 0.0 | 1.7 | 0.00 | 0.00 | 0.00 | 55 | 1018.2 |
| 20260502162949 | 62 | 83 | 2.6 | 2.6 | 0.00 | 0.00 | 0.00 | 54 | 1018.3 |
| 20260502162445 | 61 | 170 | 1.7 | 2.6 | 0.00 | 0.00 | 0.00 | 56 | 1018.1 |
| 20260502161943 | 60 | 85 | 0.0 | 3.5 | 0.00 | 0.00 | 0.00 | 58 | 1018.1 |
| 20260502161438 | 61 | 49 | 1.7 | 2.6 | 0.00 | 0.00 | 0.00 | 59 | 1018.2 |
| 20260502160937 | 60 | 34 | 3.5 | 4.3 | 0.00 | 0.00 | 0.00 | 59 | 1018.1 |
| 20260502160435 | 59 | 322 | 1.7 | 3.5 | 0.00 | 0.00 | 0.00 | 61 | 1018.1 |
| 20260502151907 | 53 | 61 | 1.7 | 2.6 | 0.00 | 0.00 | 0.00 | 73 | 1018.3 |
| 20260502151403 | 52 | 65 | 0.0 | 1.7 | 0.00 | 0.00 | 0.00 | 74 | 1018.1 |
| 20260502150901 | 51 | 54 | 2.6 | 2.6 | 0.00 | 0.00 | 0.00 | 76 | 1018.3 |
| 20260502150357 | 51 | 89 | 0.9 | 1.7 | 0.00 | 0.00 | 0.00 | 77 | 1018.3 |
| 20260502130745 | 42 | 28 | 0.0 | 1.7 | 0.00 | 0.00 | 0.00 | 88 | 1017.4 |
| 20260502130243 | 41 | 106 | 0.9 | 0.9 | 0.00 | 0.00 | 0.00 | 89 | 1017.5 |
| 20260502123729 | 42 | 82 | 0.9 | 1.7 | 0.00 | 0.00 | 0.00 | 89 | 1017.6 |
| 20260502123225 | 42 | 100 | 0.9 | 1.7 | 0.00 | 0.00 | 0.00 | 88 | 1017.8 |
| 20260502122722 | 42 | 57 | 0.9 | 2.6 | 0.00 | 0.00 | 0.00 | 87 | 1017.6 |
| 20260502122218 | 42 | 20 | 0.9 | 1.7 | 0.00 | 0.00 | 0.00 | 87 | 1017.6 |
| 20260502121717 | 43 | 55 | 0.0 | 1.7 | 0.00 | 0.00 | 0.00 | 86 | 1017.5 |
| 20260502121214 | 43 | 37 | 1.7 | 1.7 | 0.00 | 0.00 | 0.00 | 86 | 1017.3 |
| 20260502120710 | 43 | 34 | 2.6 | 2.6 | 0.00 | 0.00 | 0.00 | 85 | 1017.3 |
| 20260502120207 | 43 | 70 | 1.7 | 1.7 | 0.00 | 0.00 | 0.00 | 85 | 1017.5 |
| 20260502115705 | 43 | 72 | 0.9 | 1.7 | 0.00 | 0.00 | 0.00 | 84 | 1017.3 |
| 20260502115201 | 43 | 95 | 0.0 | 1.7 | 0.00 | 0.00 | 0.00 | 84 | 1017.1 |
| 20260502114657 | 43 | 89 | 0.9 | 1.7 | 0.00 | 0.00 | 0.00 | 83 | 1017.5 |
| 20260502114154 | 44 | 112 | 0.9 | 0.9 | 0.00 | 0.00 | 0.00 | 82 | 1017.5 |
| 20260502113652 | 44 | 73 | 0.0 | 1.7 | 0.00 | 0.00 | 0.00 | 82 | 1017.4 |
| 20260502113150 | 44 | 135 | 0.0 | 0.9 | 0.00 | 0.00 | 0.00 | 81 | 1017.4 |
| 20260502112648 | 45 | 32 | 0.0 | 1.7 | 0.00 | 0.00 | 0.00 | 80 | 1017.5 |
| 20260502112145 | 45 | 208 | 0.0 | 1.7 | 0.00 | 0.00 | 0.00 | 79 | 1017.3 |
| 20260502111642 | 45 | 195 | 0.0 | 1.7 | 0.00 | 0.00 | 0.00 | 79 | 1017.6 |
| 20260502111140 | 44 | 187 | 1.7 | 1.7 | 0.00 | 0.00 | 0.00 | 82 | 1017.3 |
| 20260502110637 | 43 | 53 | 1.7 | 1.7 | 0.00 | 0.00 | 0.00 | 84 | 1017.1 |
| 20260502110134 | 44 | 72 | 1.7 | 1.7 | 0.00 | 0.00 | 0.00 | 84 | 1017.3 |
| 20260502105632 | 44 | 348 | 0.0 | 1.7 | 0.00 | 0.00 | 0.00 | 83 | 1017.5 |
| 20260502105129 | 44 | 172 | 0.0 | 1.7 | 0.00 | 0.00 | 0.00 | 83 | 1017.6 |
| 20260502104626 | 43 | 101 | 0.0 | 0.9 | 0.00 | 0.00 | 0.00 | 84 | 1017.6 |
| 20260502104123 | 44 | 175 | 0.9 | 1.7 | 0.00 | 0.00 | 0.00 | 85 | 1017.4 |
| 20260502103621 | 43 | 180 | 0.0 | 1.7 | 0.00 | 0.00 | 0.00 | 86 | 1017.5 |
| 20260502103119 | 43 | 195 | 0.0 | 1.7 | 0.00 | 0.00 | 0.00 | 85 | 1017.5 |
| 20260502102615 | 44 | 40 | 0.0 | 0.9 | 0.00 | 0.00 | 0.00 | 85 | 1017.3 |
| 20260502102112 | 43 | 89 | 0.0 | 0.9 | 0.00 | 0.00 | 0.00 | 85 | 1017.1 |
| 20260502101610 | 44 | 75 | 0.0 | 0.9 | 0.00 | 0.00 | 0.00 | 84 | 1017.4 |
| 20260502101108 | 44 | 315 | 0.0 | 0.9 | 0.00 | 0.00 | 0.00 | 85 | 1017.3 |
| 20260502100606 | 44 | 173 | 0.0 | 1.7 | 0.00 | 0.00 | 0.00 | 84 | 1017.4 |
| 20260502100104 | 44 | 212 | 0.0 | 0.0 | 0.00 | 0.00 | 0.00 | 83 | 1017.1 |
| 20260502091038 | 46 | 103 | 0.0 | 0.9 | 0.00 | 0.00 | 0.00 | 80 | 1017.0 |
| 20260502090535 | 46 | 68 | 0.9 | 1.7 | 0.00 | 0.00 | 0.00 | 79 | 1017.3 |
| 20260502071429 | 48 | 63 | 0.0 | 0.9 | 0.00 | 0.00 | 0.00 | 75 | 1017.6 |
| 20260502070928 | 49 | 216 | 0.0 | 1.7 | 0.00 | 0.00 | 0.00 | 75 | 1017.7 |
| 20260502070425 | 48 | 135 | 0.0 | 0.9 | 0.00 | 0.00 | 0.00 | 76 | 1017.6 |
| 20260502065924 | 48 | 200 | 1.7 | 1.7 | 0.00 | 0.00 | 0.00 | 75 | 1017.4 |
| 20260502065422 | 48 | 229 | 0.0 | 0.9 | 0.00 | 0.00 | 0.00 | 74 | 1017.4 |
| 20260502064920 | 48 | 269 | 0.9 | 2.6 | 0.00 | 0.00 | 0.00 | 73 | 1017.3 |
| 20260502064417 | 49 | 23 | 0.0 | 0.9 | 0.00 | 0.00 | 0.00 | 73 | 1017.3 |
| 20260502063914 | 50 | 98 | 0.0 | 1.7 | 0.00 | 0.00 | 0.00 | 73 | 1017.1 |
| 20260502063412 | 50 | 111 | 0.0 | 1.7 | 0.00 | 0.00 | 0.00 | 74 | 1017.3 |
| 20260502062909 | 49 | 66 | 0.0 | 0.9 | 0.00 | 0.00 | 0.00 | 74 | 1017.4 |
| 20260502062406 | 50 | 91 | 0.0 | 0.9 | 0.00 | 0.00 | 0.00 | 73 | 1017.3 |
| 20260502061905 | 50 | 89 | 0.0 | 1.7 | 0.00 | 0.00 | 0.00 | 72 | 1017.1 |
| 20260502061403 | 50 | 76 | 0.0 | 0.9 | 0.00 | 0.00 | 0.00 | 71 | 1017.4 |
| 20260502060858 | 50 | 89 | 0.0 | 0.9 | 0.00 | 0.00 | 0.00 | 70 | 1017.3 |
| 20260502060353 | 51 | 25 | 0.0 | 0.9 | 0.00 | 0.00 | 0.00 | 70 | 1017.5 |
| 20260502055851 | 52 | 93 | 0.0 | 0.9 | 0.00 | 0.00 | 0.00 | 68 | 1017.1 |
| 20260502055349 | 52 | 103 | 0.0 | 0.9 | 0.00 | 0.00 | 0.00 | 66 | 1017.3 |
| 20260502054848 | 53 | 89 | 0.0 | 0.9 | 0.00 | 0.00 | 0.00 | 65 | 1017.3 |
| 20260502054345 | 53 | 119 | 0.0 | 1.7 | 0.00 | 0.00 | 0.00 | 64 | 1017.3 |
| 20260502053843 | 54 | 139 | 0.9 | 1.7 | 0.00 | 0.00 | 0.00 | 64 | 1017.1 |
| 20260502053340 | 53 | 94 | 0.0 | 1.7 | 0.00 | 0.00 | 0.00 | 65 | 1017.4 |
| 20260502052837 | 54 | 129 | 0.0 | 1.7 | 0.00 | 0.00 | 0.00 | 65 | 1017.3 |
| 20260502052335 | 54 | 113 | 0.0 | 0.9 | 0.00 | 0.00 | 0.00 | 64 | 1017.3 |
| 20260502051833 | 54 | 106 | 0.9 | 1.7 | 0.00 | 0.00 | 0.00 | 65 | 1017.3 |
| 20260502051331 | 54 | 123 | 0.0 | 1.7 | 0.00 | 0.00 | 0.00 | 66 | 1017.4 |